Check out our new BloomSky Weather System.

Active alerts


No alerts


Thunder radar  blitzortung!


Rain radar more information rain snow radar


Visit our other weather sites:

Template documentation
and downloads

And another site



Weather Underground History page Text

Daily Summary for May 16, 2017 Units:  Metric    English   Both
« Previous Day
Next Day »
Daily Weekly Monthly Yearly Custom
  High: Low: Average:
Temperature: 31.2 °C 20.9 °C 25.8 °C
Dew Point: 20.8 °C 18.2 °C 19.9 °C
Humidity: 93 % 49 % 72 %
Wind Speed: 27.4 km/h 0 km/h 9.8 km/h
Wind Gust: 37 km/h - -
Wind:- - SE
Pressure: 1013.1 hPa 1008 hPa -
Precipitation: 0 mm    
Historical Graphs
 
 
Tabular Data for May 16, 2017
Time Temperature Dew Point Pressure Wind Wind Speed Wind Gust Humidity Rainfall Rate (Hourly)
00:02 22.9 °C 20.4 °C 1012.8 hPa SE 1.6 km/h 4.8 km/h 86 % 0 mm
00:07 22.9 °C 20.4 °C 1012.8 hPa East 4.8 km/h 6.4 km/h 86 % 0 mm
00:12 22.8 °C 20.3 °C 1012.8 hPa ESE 3.2 km/h 6.4 km/h 86 % 0 mm
00:17 22.8 °C 20.5 °C 1012.8 hPa ESE 1.6 km/h 6.4 km/h 87 % 0 mm
00:22 22.8 °C 20.5 °C 1012.8 hPa SE 3.2 km/h 8 km/h 87 % 0 mm
00:27 22.8 °C 20.5 °C 1012.8 hPa SE 1.6 km/h 8 km/h 87 % 0 mm
00:32 22.8 °C 20.5 °C 1012.4 hPa ESE 1.6 km/h 8 km/h 87 % 0 mm
00:37 22.8 °C 20.5 °C 1012.4 hPa SSE 3.2 km/h 8 km/h 87 % 0 mm
00:39 22.8 °C 20.5 °C 1012.4 hPa SE 1.6 km/h 8 km/h 87 % 0 mm
00:44 22.7 °C 20.4 °C 1012.4 hPa SE 1.6 km/h 6.4 km/h 87 % 0 mm
00:49 22.7 °C 20.4 °C 1012.4 hPa SE 1.6 km/h 6.4 km/h 87 % 0 mm
00:54 22.6 °C 20.5 °C 1012.4 hPa SE 1.6 km/h 4.8 km/h 88 % 0 mm
00:59 22.6 °C 20.5 °C 1012.4 hPa SE 3.2 km/h 4.8 km/h 88 % 0 mm
01:00 22.6 °C 20.5 °C 1012.4 hPa East 3.2 km/h 4.8 km/h 88 % 0 mm
01:05 22.6 °C 20.5 °C 1012.4 hPa ESE 1.6 km/h 6.4 km/h 88 % 0 mm
01:10 22.6 °C 20.5 °C 1012.4 hPa Calm   6.4 km/h 88 % 0 mm
01:15 22.4 °C 20.3 °C 1012.4 hPa Calm   6.4 km/h 88 % 0 mm
01:20 22.3 °C 20.4 °C 1012.4 hPa SE 1.6 km/h 4.8 km/h 89 % 0 mm
01:25 22.3 °C 20.4 °C 1012.4 hPa Calm   4.8 km/h 89 % 0 mm
01:30 22.3 °C 20.4 °C 1012.4 hPa SE 1.6 km/h 4.8 km/h 89 % 0 mm
01:35 22.3 °C 20.6 °C 1012.4 hPa South 3.2 km/h 4.8 km/h 90 % 0 mm
01:40 22.4 °C 20.7 °C 1012.4 hPa SE 3.2 km/h 4.8 km/h 90 % 0 mm
01:45 22.4 °C 20.7 °C 1012.1 hPa SSE 1.6 km/h 4.8 km/h 90 % 0 mm
01:50 22.5 °C 20.6 °C 1012.1 hPa South 1.6 km/h 6.4 km/h 89 % 0 mm
01:55 22.5 °C 20.8 °C 1012.1 hPa SE 4.8 km/h 8 km/h 90 % 0 mm
02:00 22.6 °C 20.7 °C 1011.7 hPa SSE 3.2 km/h 8 km/h 89 % 0 mm
02:05 22.6 °C 20.7 °C 1011.7 hPa South 4.8 km/h 8 km/h 89 % 0 mm
02:10 22.7 °C 20.8 °C 1011.4 hPa SSE 3.2 km/h 11.3 km/h 89 % 0 mm
02:15 22.7 °C 20.8 °C 1011.4 hPa SSE 11.3 km/h 11.3 km/h 89 % 0 mm
02:20 22.7 °C 20.8 °C 1011.4 hPa ESE 9.7 km/h 14.5 km/h 89 % 0 mm
02:25 22.7 °C 20.8 °C 1011.4 hPa SE 4.8 km/h 17.7 km/h 89 % 0 mm
02:30 22.7 °C 20.8 °C 1011.4 hPa SSE 8 km/h 17.7 km/h 89 % 0 mm
02:35 22.7 °C 20.8 °C 1011.4 hPa SSE 4.8 km/h 17.7 km/h 89 % 0 mm
02:40 22.7 °C 20.8 °C 1011.4 hPa SE 9.7 km/h 9.7 km/h 89 % 0 mm
02:45 22.6 °C 20.7 °C 1011.4 hPa SSE 3.2 km/h 9.7 km/h 89 % 0 mm
02:50 22.6 °C 20.7 °C 1011.4 hPa ESE 4.8 km/h 9.7 km/h 89 % 0 mm
02:55 22.6 °C 20.7 °C 1011.4 hPa Calm   9.7 km/h 89 % 0 mm
03:00 22.4 °C 20.5 °C 1011.1 hPa ESE 3.2 km/h 6.4 km/h 89 % 0 mm
03:05 22.4 °C 20.5 °C 1011.1 hPa SSE 1.6 km/h 8 km/h 89 % 0 mm
03:10 22.4 °C 20.5 °C 1011.1 hPa SSE 3.2 km/h 8 km/h 89 % 0 mm
03:15 22.3 °C 20.4 °C 1011.1 hPa SE 3.2 km/h 8 km/h 89 % 0 mm
03:20 22.3 °C 20.4 °C 1011.1 hPa ESE 3.2 km/h 8 km/h 89 % 0 mm
03:25 22.3 °C 20.4 °C 1011.1 hPa SE 3.2 km/h 8 km/h 89 % 0 mm
03:30 22.3 °C 20.6 °C 1011.1 hPa SSE 3.2 km/h 9.7 km/h 90 % 0 mm
03:35 22.2 °C 20.5 °C 1011.1 hPa SE 1.6 km/h 9.7 km/h 90 % 0 mm
03:40 22.2 °C 20.3 °C 1011.1 hPa ESE 3.2 km/h 9.7 km/h 89 % 0 mm
03:41 22.2 °C 20.3 °C 1011.1 hPa ESE 1.6 km/h 9.7 km/h 89 % 0 mm
03:46 22.1 °C 20.4 °C 1011.1 hPa SE 4.8 km/h 6.4 km/h 90 % 0 mm
03:51 22.1 °C 20.4 °C 1011.1 hPa SE 1.6 km/h 4.8 km/h 90 % 0 mm
03:56 22.1 °C 20.4 °C 1011.1 hPa Calm   6.4 km/h 90 % 0 mm
04:01 21.9 °C 20.2 °C 1011.1 hPa SE 3.2 km/h 6.4 km/h 90 % 0 mm
04:06 21.9 °C 20.2 °C 1011.1 hPa SE 1.6 km/h 6.4 km/h 90 % 0 mm
04:11 21.9 °C 20.2 °C 1011.1 hPa SE 3.2 km/h 6.4 km/h 90 % 0 mm
04:16 21.9 °C 20.2 °C 1011.1 hPa SSE 3.2 km/h 8 km/h 90 % 0 mm
04:21 21.9 °C 20.2 °C 1011.1 hPa SE 1.6 km/h 8 km/h 90 % 0 mm
04:26 21.9 °C 20.2 °C 1011.1 hPa Calm   8 km/h 90 % 0 mm
04:31 21.8 °C 20.1 °C 1011.1 hPa Calm   6.4 km/h 90 % 0 mm
04:36 21.8 °C 20.1 °C 1011.1 hPa Calm   6.4 km/h 90 % 0 mm
04:41 21.8 °C 20.3 °C 1011.1 hPa ESE 3.2 km/h 8 km/h 91 % 0 mm
04:46 21.9 °C 20.4 °C 1011.1 hPa ESE 1.6 km/h 8 km/h 91 % 0 mm
04:51 21.9 °C 20.2 °C 1011.1 hPa Calm   8 km/h 90 % 0 mm
04:56 21.9 °C 20.2 °C 1011.1 hPa SE 1.6 km/h 6.4 km/h 90 % 0 mm
05:01 21.8 °C 20.1 °C 1011.1 hPa ESE 3.2 km/h 6.4 km/h 90 % 0 mm
05:06 21.8 °C 20.1 °C 1011.1 hPa ESE 1.6 km/h 6.4 km/h 90 % 0 mm
05:11 21.8 °C 20.1 °C 1011.1 hPa ESE 3.2 km/h 9.7 km/h 90 % 0 mm
05:16 21.8 °C 20.1 °C 1011.1 hPa East 4.8 km/h 9.7 km/h 90 % 0 mm
05:21 21.7 °C 20 °C 1011.1 hPa Calm   9.7 km/h 90 % 0 mm
05:26 21.7 °C 20 °C 1011.1 hPa Calm   6.4 km/h 90 % 0 mm
05:31 21.6 °C 19.9 °C 1011.1 hPa Calm   4.8 km/h 90 % 0 mm
05:36 21.6 °C 19.9 °C 1011.1 hPa Calm   3.2 km/h 90 % 0 mm
05:41 21.6 °C 20.1 °C 1011.1 hPa Calm   3.2 km/h 91 % 0 mm
05:46 21.5 °C 20 °C 1011.1 hPa SE 1.6 km/h 3.2 km/h 91 % 0 mm
05:51 21.5 °C 20 °C 1011.1 hPa Calm   3.2 km/h 91 % 0 mm
05:56 21.4 °C 19.9 °C 1011.1 hPa ESE 1.6 km/h 3.2 km/h 91 % 0 mm
06:01 21.4 °C 19.9 °C 1011.1 hPa Calm   3.2 km/h 91 % 0 mm
06:07 21.3 °C 19.8 °C 1011.1 hPa Calm   1.6 km/h 91 % 0 mm
06:12 21.2 °C 19.7 °C 1011.1 hPa Calm   1.6 km/h 91 % 0 mm
06:17 21.2 °C 19.7 °C 1011.4 hPa Calm   1.6 km/h 91 % 0 mm
06:22 21.1 °C 19.7 °C 1011.4 hPa Calm   1.6 km/h 92 % 0 mm
06:27 21.1 °C 19.7 °C 1011.4 hPa SE 1.6 km/h 1.6 km/h 92 % 0 mm
06:32 21 °C 19.6 °C 1011.7 hPa Calm   1.6 km/h 92 % 0 mm
06:37 20.9 °C 19.6 °C 1011.7 hPa Calm   1.6 km/h 92 % 0 mm
06:42 20.9 °C 19.6 °C 1011.7 hPa Calm   1.6 km/h 92 % 0 mm
06:47 21.1 °C 19.9 °C 1011.7 hPa Calm   3.2 km/h 93 % 0 mm
06:52 21.1 °C 19.7 °C 1011.7 hPa Calm   3.2 km/h 92 % 0 mm
06:57 21.1 °C 19.9 °C 1011.7 hPa SE 1.6 km/h 3.2 km/h 93 % 0 mm
07:02 21.2 °C 20 °C 1011.7 hPa Calm   4.8 km/h 93 % 0 mm
07:07 21.2 °C 20 °C 1011.7 hPa SSE 1.6 km/h 4.8 km/h 93 % 0 mm
07:12 21.4 °C 20.2 °C 1011.7 hPa ESE 3.2 km/h 4.8 km/h 93 % 0 mm
07:17 21.6 °C 20.2 °C 1011.7 hPa East 1.6 km/h 8 km/h 92 % 0 mm
07:22 21.8 °C 20.4 °C 1011.7 hPa SE 4.8 km/h 8 km/h 92 % 0 mm
07:27 22.2 °C 20.7 °C 1011.7 hPa SSE 3.2 km/h 8 km/h 91 % 0 mm
07:32 22.4 °C 20.5 °C 1012.1 hPa SE 1.6 km/h 11.3 km/h 89 % 0 mm
07:37 22.7 °C 20.6 °C 1012.1 hPa SE 12.9 km/h 14.5 km/h 88 % 0 mm
07:42 23.1 °C 20.6 °C 1012.1 hPa South 3.2 km/h 14.5 km/h 86 % 0 mm
07:47 23.4 °C 20.5 °C 1012.1 hPa ESE 8 km/h 14.5 km/h 84 % 0 mm
07:52 23.7 °C 20.4 °C 1012.1 hPa ESE 4.8 km/h 16.1 km/h 82 % 0 mm
07:57 23.8 °C 20.3 °C 1012.1 hPa ESE 11.3 km/h 16.1 km/h 81 % 0 mm
08:02 24.1 °C 20.4 °C 1012.1 hPa SE 12.9 km/h 20.9 km/h 80 % 0 mm
08:07 24.2 °C 20.3 °C 1012.1 hPa ESE 8 km/h 20.9 km/h 79 % 0 mm
08:12 24.4 °C 20.5 °C 1012.1 hPa ESE 14.5 km/h 20.9 km/h 79 % 0 mm
08:17 24.5 °C 20.4 °C 1012.1 hPa ESE 12.9 km/h 19.3 km/h 78 % 0 mm
08:22 24.7 °C 20.4 °C 1012.1 hPa SSE 14.5 km/h 19.3 km/h 77 % 0 mm
08:27 24.8 °C 20.3 °C 1012.4 hPa ESE 11.3 km/h 22.5 km/h 76 % 0 mm
08:32 25 °C 20.7 °C 1012.4 hPa ESE 16.1 km/h 22.5 km/h 77 % 0 mm
08:37 25.3 °C 20.5 °C 1012.4 hPa South 11.3 km/h 22.5 km/h 75 % 0 mm
08:42 25.3 °C 20.3 °C 1012.4 hPa SE 9.7 km/h 22.5 km/h 74 % 0 mm
08:47 25.4 °C 20.4 °C 1012.4 hPa SE 11.3 km/h 22.5 km/h 74 % 0 mm
08:52 25.5 °C 20.3 °C 1012.4 hPa ESE 16.1 km/h 25.7 km/h 73 % 0 mm
08:57 25.6 °C 20.6 °C 1012.4 hPa SSE 12.9 km/h 25.7 km/h 74 % 0 mm
09:02 25.8 °C 20.8 °C 1012.4 hPa SE 12.9 km/h 25.7 km/h 74 % 0 mm
09:07 26.1 °C 20.4 °C 1012.8 hPa East 14.5 km/h 24.1 km/h 71 % 0 mm
09:12 26.1 °C 20.2 °C 1012.8 hPa SE 6.4 km/h 24.1 km/h 70 % 0 mm
09:17 26.1 °C 20 °C 1012.8 hPa SE 17.7 km/h 24.1 km/h 69 % 0 mm
09:22 25.9 °C 20 °C 1012.8 hPa SSE 12.9 km/h 27.4 km/h 70 % 0 mm
09:27 25.9 °C 20 °C 1012.8 hPa South 11.3 km/h 27.4 km/h 70 % 0 mm
09:32 26.1 °C 20 °C 1012.8 hPa East 16.1 km/h 27.4 km/h 69 % 0 mm
09:37 26.3 °C 20.2 °C 1012.8 hPa SSE 17.7 km/h 24.1 km/h 69 % 0 mm
09:42 26.5 °C 20.1 °C 1012.8 hPa SSW 8 km/h 24.1 km/h 68 % 0 mm
09:47 26.6 °C 20 °C 1012.8 hPa SE 16.1 km/h 20.9 km/h 67 % 0 mm
09:52 26.7 °C 20.1 °C 1012.8 hPa SE 12.9 km/h 25.7 km/h 67 % 0 mm
09:57 26.8 °C 19.9 °C 1012.8 hPa SE 14.5 km/h 25.7 km/h 66 % 0 mm
10:02 26.9 °C 20 °C 1012.8 hPa South 9.7 km/h 25.7 km/h 66 % 0 mm
10:07 27 °C 20.1 °C 1012.8 hPa East 22.5 km/h 29 km/h 66 % 0 mm
10:12 26.9 °C 20.3 °C 1012.8 hPa SSE 16.1 km/h 29 km/h 67 % 0 mm
10:17 26.8 °C 20.2 °C 1013.1 hPa ESE 11.3 km/h 29 km/h 67 % 0 mm
10:22 27.1 °C 20.2 °C 1012.8 hPa SE 16.1 km/h 27.4 km/h 66 % 0 mm
10:27 27.2 °C 20.3 °C 1012.8 hPa ESE 9.7 km/h 27.4 km/h 66 % 0 mm
10:32 27.2 °C 19.8 °C 1012.8 hPa SSE 14.5 km/h 22.5 km/h 64 % 0 mm
10:37 27.2 °C 20 °C 1012.8 hPa SSW 4.8 km/h 25.7 km/h 65 % 0 mm
10:42 27.5 °C 20.1 °C 1012.8 hPa South 22.5 km/h 25.7 km/h 64 % 0 mm
10:47 27.4 °C 19.5 °C 1012.8 hPa SSW 11.3 km/h 25.7 km/h 62 % 0 mm
10:52 27.3 °C 19.4 °C 1012.8 hPa South 8 km/h 24.1 km/h 62 % 0 mm
10:57 27.3 °C 19.6 °C 1012.8 hPa SE 9.7 km/h 24.1 km/h 63 % 0 mm
11:02 27.2 °C 19.3 °C 1012.8 hPa South 8 km/h 25.7 km/h 62 % 0 mm
11:07 27.2 °C 19.5 °C 1012.8 hPa SSE 12.9 km/h 25.7 km/h 63 % 0 mm
11:12 27.6 °C 19.7 °C 1012.8 hPa SSE 11.3 km/h 25.7 km/h 62 % 0 mm
11:17 27.4 °C 19.2 °C 1012.8 hPa South 8 km/h 20.9 km/h 61 % 0 mm
11:22 27.7 °C 19.2 °C 1012.8 hPa South 19.3 km/h 19.3 km/h 60 % 0 mm
11:27 27.9 °C 19.1 °C 1012.8 hPa ESE 11.3 km/h 22.5 km/h 59 % 0 mm
11:32 28.2 °C 19.2 °C 1012.8 hPa ESE 9.7 km/h 25.7 km/h 58 % 0 mm
11:37 28.6 °C 19 °C 1012.8 hPa SSE 12.9 km/h 25.7 km/h 56 % 0 mm
11:42 28.7 °C 18.5 °C 1012.8 hPa East 11.3 km/h 25.7 km/h 54 % 0 mm
11:47 28.9 °C 18.4 °C 1012.8 hPa SSE 14.5 km/h 25.7 km/h 53 % 0 mm
11:52 28.9 °C 18.7 °C 1012.4 hPa SE 12.9 km/h 27.4 km/h 54 % 0 mm
11:57 28.9 °C 19 °C 1012.4 hPa SE 8 km/h 27.4 km/h 55 % 0 mm
12:02 29.2 °C 18.9 °C 1012.1 hPa SE 9.7 km/h 27.4 km/h 54 % 0 mm
12:07 29.4 °C 18.8 °C 1012.4 hPa South 9.7 km/h 25.7 km/h 53 % 0 mm
12:12 29.6 °C 19.3 °C 1012.1 hPa SE 16.1 km/h 24.1 km/h 54 % 0 mm
12:17 29.6 °C 19.3 °C 1012.1 hPa SSE 8 km/h 25.7 km/h 54 % 0 mm
12:22 29.6 °C 19.3 °C 1012.1 hPa South 16.1 km/h 25.7 km/h 54 % 0 mm
12:27 29.6 °C 19.3 °C 1012.1 hPa SW 14.5 km/h 27.4 km/h 54 % 0 mm
12:32 29.5 °C 19.2 °C 1012.1 hPa South 24.1 km/h 27.4 km/h 54 % 0 mm
12:37 29.6 °C 18.7 °C 1011.7 hPa SSE 8 km/h 27.4 km/h 52 % 0 mm
12:42 29.8 °C 19.5 °C 1011.7 hPa WSW 16.1 km/h 25.7 km/h 54 % 0 mm
12:47 29.7 °C 19.1 °C 1011.7 hPa SE 17.7 km/h 25.7 km/h 53 % 0 mm
12:52 29.8 °C 19.2 °C 1011.7 hPa SE 9.7 km/h 25.7 km/h 53 % 0 mm
12:57 29.9 °C 18.7 °C 1011.7 hPa SSE 11.3 km/h 27.4 km/h 51 % 0 mm
13:02 30.1 °C 18.5 °C 1011.7 hPa South 6.4 km/h 27.4 km/h 50 % 0 mm
13:04 30.2 °C 18.9 °C 1011.4 hPa South 16.1 km/h 27.4 km/h 51 % 0 mm
13:09 30.4 °C 18.5 °C 1011.4 hPa SSW 12.9 km/h 27.4 km/h 49 % 0 mm
13:14 30.3 °C 18.4 °C 1011.1 hPa SE 11.3 km/h 27.4 km/h 49 % 0 mm
13:19 30.1 °C 18.2 °C 1011.1 hPa ESE 9.7 km/h 30.6 km/h 49 % 0 mm
13:24 30.4 °C 18.8 °C 1011.1 hPa SE 19.3 km/h 33.8 km/h 50 % 0 mm
13:29 30.3 °C 18.4 °C 1011.1 hPa SE 14.5 km/h 33.8 km/h 49 % 0 mm
13:34 30.3 °C 18.7 °C 1011.1 hPa SSE 17.7 km/h 33.8 km/h 50 % 0 mm
13:39 30.3 °C 19.3 °C 1011.1 hPa SSE 11.3 km/h 25.7 km/h 52 % 0 mm
13:44 30.4 °C 19.1 °C 1011.1 hPa ESE 12.9 km/h 25.7 km/h 51 % 0 mm
13:49 30.5 °C 19.2 °C 1011.1 hPa SE 12.9 km/h 25.7 km/h 51 % 0 mm
13:54 30.3 °C 19 °C 1011.1 hPa ESE 14.5 km/h 37 km/h 51 % 0 mm
13:59 30.2 °C 18.9 °C 1010.7 hPa SE 14.5 km/h 37 km/h 51 % 0 mm
14:04 30.4 °C 19.1 °C 1010.7 hPa SE 16.1 km/h 37 km/h 51 % 0 mm
14:09 30.7 °C 19.4 °C 1010.7 hPa ESE 14.5 km/h 30.6 km/h 51 % 0 mm
14:14 30.7 °C 18.8 °C 1010.7 hPa SSW 11.3 km/h 27.4 km/h 49 % 0 mm
14:19 30.8 °C 19.8 °C 1010.7 hPa SE 14.5 km/h 27.4 km/h 52 % 0 mm
14:24 30.7 °C 19.4 °C 1010.4 hPa SE 9.7 km/h 27.4 km/h 51 % 0 mm
14:29 30.7 °C 19.7 °C 1010.4 hPa South 12.9 km/h 27.4 km/h 52 % 0 mm
14:34 30.8 °C 19.8 °C 1010.4 hPa East 17.7 km/h 27.4 km/h 52 % 0 mm
14:39 30.8 °C 19.2 °C 1010 hPa SE 12.9 km/h 25.7 km/h 50 % 0 mm
14:44 30.8 °C 19.8 °C 1010.4 hPa SSE 12.9 km/h 32.2 km/h 52 % 0 mm
14:49 30.8 °C 19.8 °C 1010 hPa ESE 17.7 km/h 32.2 km/h 52 % 0 mm
14:54 31 °C 20 °C 1010 hPa SSE 17.7 km/h 32.2 km/h 52 % 0 mm
14:59 30.7 °C 19.7 °C 1010 hPa SE 17.7 km/h 29 km/h 52 % 0 mm
15:04 30.7 °C 20 °C 1010 hPa SSE 11.3 km/h 29 km/h 53 % 0 mm
15:09 30.8 °C 19.8 °C 1009.7 hPa SW 12.9 km/h 29 km/h 52 % 0 mm
15:14 31.2 °C 20.5 °C 1009.7 hPa ESE 6.4 km/h 27.4 km/h 53 % 0 mm
15:19 30.8 °C 20.1 °C 1009.7 hPa SSE 20.9 km/h 25.7 km/h 53 % 0 mm
15:24 30.5 °C 20.1 °C 1009.7 hPa ESE 19.3 km/h 30.6 km/h 54 % 0 mm
15:29 30.3 °C 20 °C 1009.7 hPa SSE 12.9 km/h 30.6 km/h 54 % 0 mm
15:35 30.4 °C 19.7 °C 1009.4 hPa ESE 25.7 km/h 30.6 km/h 53 % 0 mm
15:40 30.7 °C 20.3 °C 1009.4 hPa SSW 25.7 km/h 30.6 km/h 54 % 0 mm
15:45 30.6 °C 20.2 °C 1009.4 hPa South 20.9 km/h 30.6 km/h 54 % 0 mm
15:50 30.2 °C 20.4 °C 1009.4 hPa South 9.7 km/h 30.6 km/h 56 % 0 mm
15:55 30.4 °C 20.6 °C 1009.4 hPa South 14.5 km/h 30.6 km/h 56 % 0 mm
16:00 30.2 °C 20.2 °C 1009.4 hPa SSE 9.7 km/h 27.4 km/h 55 % 0 mm
16:05 30.4 °C 20.3 °C 1009 hPa East 24.1 km/h 24.1 km/h 55 % 0 mm
16:10 30.7 °C 19.7 °C 1009 hPa SE 16.1 km/h 25.7 km/h 52 % 0 mm
16:15 30.4 °C 20 °C 1009 hPa SSW 22.5 km/h 29 km/h 54 % 0 mm
16:20 30.4 °C 20.3 °C 1009 hPa SSE 17.7 km/h 29 km/h 55 % 0 mm
16:25 30.4 °C 19.7 °C 1009 hPa SSE 9.7 km/h 29 km/h 53 % 0 mm
16:30 30.6 °C 19.6 °C 1009 hPa SSE 6.4 km/h 27.4 km/h 52 % 0 mm
16:35 30.5 °C 19.5 °C 1009 hPa SE 14.5 km/h 29 km/h 52 % 0 mm
16:40 30.3 °C 19.7 °C 1009 hPa SE 11.3 km/h 29 km/h 53 % 0 mm
16:45 30.3 °C 20 °C 1009 hPa South 11.3 km/h 29 km/h 54 % 0 mm
16:50 30.1 °C 19.5 °C 1009 hPa SE 14.5 km/h 27.4 km/h 53 % 0 mm
16:55 30.2 °C 19.6 °C 1009 hPa SE 16.1 km/h 25.7 km/h 53 % 0 mm
17:00 30.3 °C 20 °C 1009 hPa SE 12.9 km/h 27.4 km/h 54 % 0 mm
17:05 30.4 °C 19.7 °C 1008.7 hPa ESE 14.5 km/h 29 km/h 53 % 0 mm
17:10 30.3 °C 20 °C 1009 hPa SSE 17.7 km/h 30.6 km/h 54 % 0 mm
17:15 30.1 °C 19.5 °C 1008.7 hPa South 16.1 km/h 30.6 km/h 53 % 0 mm
17:20 29.8 °C 19.2 °C 1008.7 hPa ESE 12.9 km/h 33.8 km/h 53 % 0 mm
17:25 29.8 °C 19.2 °C 1009 hPa SSE 14.5 km/h 33.8 km/h 53 % 0 mm
17:28 29.7 °C 19.4 °C 1008.7 hPa SSE 8 km/h 33.8 km/h 54 % 0 mm
17:33 29.7 °C 19.1 °C 1008.7 hPa SSE 16.1 km/h 33.8 km/h 53 % 0 mm
17:38 29.6 °C 19 °C 1008.7 hPa SE 25.7 km/h 29 km/h 53 % 0 mm
17:43 29.4 °C 19.1 °C 1008.7 hPa ESE 19.3 km/h 30.6 km/h 54 % 0 mm
17:48 29.6 °C 19 °C 1008.7 hPa SSE 12.9 km/h 30.6 km/h 53 % 0 mm
17:53 29.6 °C 19 °C 1008.7 hPa South 11.3 km/h 30.6 km/h 53 % 0 mm
17:58 29.5 °C 19.2 °C 1008.4 hPa SE 14.5 km/h 30.6 km/h 54 % 0 mm
18:03 29.5 °C 19.2 °C 1008.4 hPa SSW 19.3 km/h 30.6 km/h 54 % 0 mm
18:08 29.4 °C 19.4 °C 1008.4 hPa ESE 25.7 km/h 30.6 km/h 55 % 0 mm
18:13 29.1 °C 19.4 °C 1008.4 hPa ESE 12.9 km/h 32.2 km/h 56 % 0 mm
18:18 29.2 °C 19.8 °C 1008.4 hPa SE 17.7 km/h 32.2 km/h 57 % 0 mm
18:23 29.1 °C 20 °C 1008.4 hPa ESE 12.9 km/h 32.2 km/h 58 % 0 mm
18:28 28.8 °C 19.7 °C 1008.4 hPa SSE 12.9 km/h 29 km/h 58 % 0 mm
18:33 28.8 °C 19.7 °C 1008.4 hPa ESE 16.1 km/h 30.6 km/h 58 % 0 mm
18:38 28.5 °C 19.7 °C 1008.4 hPa SE 14.5 km/h 30.6 km/h 59 % 0 mm
18:43 28.3 °C 19.8 °C 1008.4 hPa SSE 11.3 km/h 32.2 km/h 60 % 0 mm
18:48 28.3 °C 19.8 °C 1008.4 hPa SE 12.9 km/h 32.2 km/h 60 % 0 mm
18:53 28.2 °C 20 °C 1008.4 hPa ESE 19.3 km/h 32.2 km/h 61 % 0 mm
18:58 28.1 °C 19.9 °C 1008.4 hPa SSE 11.3 km/h 25.7 km/h 61 % 0 mm
19:03 27.8 °C 19.8 °C 1008.4 hPa ESE 9.7 km/h 25.7 km/h 62 % 0 mm
19:08 27.7 °C 20 °C 1008 hPa SE 14.5 km/h 27.4 km/h 63 % 0 mm
19:13 27.4 °C 20 °C 1008 hPa ESE 19.3 km/h 27.4 km/h 64 % 0 mm
19:19 27.3 °C 19.9 °C 1008 hPa SE 20.9 km/h 27.4 km/h 64 % 0 mm
19:24 27.2 °C 20 °C 1008 hPa SSE 12.9 km/h 25.7 km/h 65 % 0 mm
19:29 27.1 °C 20 °C 1008 hPa SSE 17.7 km/h 27.4 km/h 65 % 0 mm
19:34 26.8 °C 20.2 °C 1008.4 hPa ESE 16.1 km/h 33.8 km/h 67 % 0 mm
19:39 26.6 °C 20.2 °C 1008.4 hPa SSE 11.3 km/h 33.8 km/h 68 % 0 mm
19:44 26.5 °C 20.1 °C 1008.4 hPa SE 6.4 km/h 33.8 km/h 68 % 0 mm
19:49 26.4 °C 20.3 °C 1008.4 hPa SE 8 km/h 25.7 km/h 69 % 0 mm
19:54 26.3 °C 20.2 °C 1008.4 hPa ESE 12.9 km/h 20.9 km/h 69 % 0 mm
19:59 26.1 °C 20 °C 1008.4 hPa SE 8 km/h 20.9 km/h 69 % 0 mm
20:04 26 °C 19.9 °C 1008.4 hPa ESE 8 km/h 20.9 km/h 69 % 0 mm
20:09 25.9 °C 19.8 °C 1008.4 hPa SE 12.9 km/h 20.9 km/h 69 % 0 mm
20:14 25.9 °C 19.5 °C 1008.4 hPa East 27.4 km/h 27.4 km/h 68 % 0 mm
20:19 25.8 °C 19.4 °C 1008.4 hPa South 24.1 km/h 30.6 km/h 68 % 0 mm
20:24 25.8 °C 19.4 °C 1008.4 hPa SSE 22.5 km/h 30.6 km/h 68 % 0 mm
20:29 25.7 °C 19.6 °C 1008.4 hPa South 6.4 km/h 30.6 km/h 69 % 0 mm
20:34 25.6 °C 19.5 °C 1008.4 hPa SSE 17.7 km/h 29 km/h 69 % 0 mm
20:39 25.6 °C 19.7 °C 1008.4 hPa South 9.7 km/h 29 km/h 70 % 0 mm
20:44 25.5 °C 19.9 °C 1008.4 hPa South 6.4 km/h 29 km/h 71 % 0 mm
20:49 25.5 °C 20.1 °C 1008.4 hPa ESE 17.7 km/h 29 km/h 72 % 0 mm
20:54 25.4 °C 20 °C 1008.4 hPa ESE 11.3 km/h 24.1 km/h 72 % 0 mm
20:59 25.3 °C 20.1 °C 1008.4 hPa SSE 4.8 km/h 19.3 km/h 73 % 0 mm
21:04 25.3 °C 20.1 °C 1008.4 hPa SE 12.9 km/h 19.3 km/h 73 % 0 mm
21:09 25.3 °C 19.9 °C 1008.4 hPa SE 17.7 km/h 25.7 km/h 72 % 0 mm
21:14 25.2 °C 19.8 °C 1008.4 hPa ESE 17.7 km/h 30.6 km/h 72 % 0 mm
21:19 25.2 °C 19.8 °C 1008.4 hPa SE 12.9 km/h 30.6 km/h 72 % 0 mm
21:24 25.1 °C 19.7 °C 1008.4 hPa SE 16.1 km/h 30.6 km/h 72 % 0 mm
21:29 25.1 °C 19.7 °C 1008.4 hPa South 8 km/h 29 km/h 72 % 0 mm
21:34 25.1 °C 19.9 °C 1008.7 hPa SE 9.7 km/h 24.1 km/h 73 % 0 mm
21:39 25 °C 19.8 °C 1008.7 hPa SE 9.7 km/h 22.5 km/h 73 % 0 mm
21:44 24.9 °C 19.9 °C 1008.7 hPa ESE 16.1 km/h 22.5 km/h 74 % 0 mm
21:49 24.9 °C 19.9 °C 1008.7 hPa SE 9.7 km/h 24.1 km/h 74 % 0 mm
21:54 24.8 °C 19.8 °C 1008.7 hPa SE 6.4 km/h 24.1 km/h 74 % 0 mm
21:55 24.8 °C 19.8 °C 1008.7 hPa SE 8 km/h 24.1 km/h 74 % 0 mm
22:00 24.8 °C 19.8 °C 1008.7 hPa SSE 9.7 km/h 20.9 km/h 74 % 0 mm
22:05 24.8 °C 20.1 °C 1008.7 hPa ESE 12.9 km/h 20.9 km/h 75 % 0 mm
22:10 24.7 °C 20 °C 1008.7 hPa South 8 km/h 20.9 km/h 75 % 0 mm
22:15 24.7 °C 20 °C 1008.7 hPa SSE 12.9 km/h 20.9 km/h 75 % 0 mm
22:20 24.7 °C 20 °C 1008.7 hPa SSE 8 km/h 24.1 km/h 75 % 0 mm
22:25 24.7 °C 20.2 °C 1008.7 hPa SSE 16.1 km/h 24.1 km/h 76 % 0 mm
22:30 24.7 °C 20.2 °C 1008.7 hPa ESE 16.1 km/h 24.1 km/h 76 % 0 mm
22:35 24.6 °C 20.3 °C 1008.7 hPa ESE 9.7 km/h 24.1 km/h 77 % 0 mm
22:40 24.6 °C 20.3 °C 1008.7 hPa ESE 8 km/h 24.1 km/h 77 % 0 mm
22:45 24.6 °C 20.3 °C 1008.7 hPa SE 4.8 km/h 24.1 km/h 77 % 0 mm
22:50 24.5 °C 20.2 °C 1008.7 hPa SE 8 km/h 24.1 km/h 77 % 0 mm
22:55 24.4 °C 20.3 °C 1008.7 hPa ESE 9.7 km/h 24.1 km/h 78 % 0 mm
23:00 24.4 °C 20.3 °C 1008.7 hPa SE 6.4 km/h 24.1 km/h 78 % 0 mm
23:05 24.4 °C 20.5 °C 1008.4 hPa SSE 6.4 km/h 24.1 km/h 79 % 0 mm
23:10 24.3 °C 20.4 °C 1008.4 hPa ESE 16.1 km/h 19.3 km/h 79 % 0 mm
23:15 24.4 °C 20.7 °C 1008.4 hPa SE 12.9 km/h 22.5 km/h 80 % 0 mm
23:20 24.4 °C 20.7 °C 1008.4 hPa East 14.5 km/h 22.5 km/h 80 % 0 mm
23:25 24.4 °C 20.7 °C 1008.4 hPa SE 11.3 km/h 22.5 km/h 80 % 0 mm
23:30 24.4 °C 20.7 °C 1008 hPa SSE 6.4 km/h 20.9 km/h 80 % 0 mm
23:35 24.4 °C 20.7 °C 1008 hPa ESE 9.7 km/h 27.4 km/h 80 % 0 mm
23:40 24.4 °C 20.7 °C 1008.4 hPa SE 17.7 km/h 27.4 km/h 80 % 0 mm
23:45 24.4 °C 20.7 °C 1008.4 hPa South 19.3 km/h 27.4 km/h 80 % 0 mm
23:50 24.4 °C 20.7 °C 1008 hPa SE 9.7 km/h 24.1 km/h 80 % 0 mm
23:55 24.4 °C 20.7 °C 1008 hPa SSE 12.9 km/h 24.1 km/h 80 % 0 mm
Spring, Texas: Villages of Bridgestone
Compliments of Weather Underground - 2.75 mb

Script developed by  Jim McMurry - jmcmurry@mwt.net Adapted for the template by  Wim van der Kuil - Leuven-Template.eu

You find our weather info also at:

UK Metoffice

WeatherCloud

Weather Underground

Mid-South Weather Network

AWEKAS

Citizen Weather Observer Program (CWOP)

HAMweather, WeatherForYou, PWS Weather

Equipment we use:

Weather-station
Davis Vantage Vue

Weather-program
Meteohub

Weather-server
Debian 7.9 x86 (Guest)

Provider
DreamHost

Davis Vantage Vue

Meteohub

Debian 7.9 x86 (Guest)

DreamHost